Regional Weather Roundup
Issued by NWS Little Rock, AR

Home | Current Version | Previous Version | Text Only | Print | Product List | Glossary Off
Versions: 1 2 3 4 5 6 7 8 9 10 11 12 13 14 15 16 17 18 19 20 21 22 23 24 25 26 27 28 29 30 31

000
ASUS44 KLZK 181805
RWRLZK

WEATHER ROUNDUP FOR ARKANSAS
NATIONAL WEATHER SERVICE LITTLE ROCK AR
1200 PM CST SUN FEB 18 2018

NOTE: "FAIR" INDICATES FEW OR NO CLOUDS BELOW 12,000 FEET WITH NO
SIGNIFICANT WEATHER AND/OR OBSTRUCTIONS TO VISIBILITY.

ARZ001-003-010-029-181900-
NORTHWEST ARKANSAS

CITY           SKY/WX    TMP DP  RH WIND       PRES   REMARKS
FAYETTEVILLE   MOSUNNY   50  28  42 S10G20    30.08F
6HR MIN TEMP:  25; 6HR MAX TEMP:  51;

FORT SMITH     CLOUDY    51  40  65 E13       30.13F
6HR MIN TEMP:  36; 6HR MAX TEMP:  51;

HARRISON       CLOUDY    51  31  46 SE15      30.12F
6HR MIN TEMP:  29; 6HR MAX TEMP:  51;

BENTONVILLE    CLOUDY    53  30  41 SE16G22   30.09F
6HR MIN TEMP:  30; 6HR MAX TEMP:  53;

ROGERS         CLOUDY    53  27  36 S23       30.07F
6HR MIN TEMP:  32; 6HR MAX TEMP:  53;

SILOAM SPGS    CLOUDY    51  30  44 S20G26    30.07F
6HR MIN TEMP:  29; 6HR MAX TEMP:  53;

HIGHFILL       CLOUDY    55  27  34 S17G30    30.08F
6HR MIN TEMP:  27; 6HR MAX TEMP:  55;

SPRINGDALE     SUNNY     52  25  35 SE16G25   30.10F
$$

ARZ004-005-016-181900-
NORTH CENTRAL ARKANSAS

CITY           SKY/WX    TMP DP  RH WIND       PRES   REMARKS
BATESVILLE     MOSUNNY   49  36  61 E8        30.20F
6HR MIN TEMP:  28; 6HR MAX TEMP:  50;

FLIPPIN        CLOUDY    50  34  54 SE10      30.15F
6HR MIN TEMP:  29; 6HR MAX TEMP:  50;

MTN HOME       MOSUNNY   47  36  65 SE13      30.15F
6HR MIN TEMP:  27; 6HR MAX TEMP:  47;

$$

ARZ040-041-181900-
WEST CENTRAL ARKANSAS

CITY           SKY/WX    TMP DP  RH WIND       PRES   REMARKS
MENA           CLOUDY    50  46  87 SE5       30.14F
MOUNT IDA      CLOUDY    46  41  82 VRB3      30.14F
6HR MIN TEMP:  34; 6HR MAX TEMP:  48;

$$

ARZ009-017-025-026-028-181900-
NORTHEAST ARKANSAS

CITY           SKY/WX    TMP DP  RH WIND       PRES   REMARKS
JONESBORO      FAIR      49  38  65 E9        30.21F
6HR MIN TEMP:  33; 6HR MAX TEMP:  49;

NEWPORT          N/A     50  39  66 E8        30.21F
6HR MIN TEMP:  30; 6HR MAX TEMP:  50; 6HR PCP: TRACE;

WALNUT RIDGE   FAIR      48  36  63 SE12      30.23F
6HR MIN TEMP:  28; 6HR MAX TEMP:  49; 6HR PCP: TRACE;

BLYTHEVILLE    FAIR      52  36  54 S9        30.23F
6HR MIN TEMP:  33; 6HR MAX TEMP:  52;

$$

ARZ022-023-033-042-044-181900-
CENTRAL ARKANSAS

CITY           SKY/WX    TMP DP  RH WIND       PRES   REMARKS
LITTLE ROCK    CLOUDY    48  42  80 SE9       30.20F
6HR MIN TEMP:  33; 6HR MAX TEMP:  49;

N LITTLE ROCK    N/A     46  42  87 SE7       30.18F
6HR MIN TEMP:  37; 6HR MAX TEMP:  47;

JACKSONVILLE   CLOUDY    50  42  74 SE8       30.18F
6HR MIN TEMP:  35; 6HR MAX TEMP:  51;

SEARCY         FAIR      52  43  71 MISG        N/A
6HR MIN TEMP:  33; 6HR MAX TEMP:  52;

HOT SPRINGS    CLOUDY    46  43  89 SE6       30.18F
6HR MIN TEMP:  39; 6HR MAX TEMP:  46;

RUSSELLVILLE   CLOUDY    46  40  79 E8        30.17F
6HR MIN TEMP:  31; 6HR MAX TEMP:  46;

CLINTON        FAIR      48  36  61 E7        30.18F
$$

ARZ036-181900-
EAST ARKANSAS

CITY           SKY/WX    TMP DP  RH WIND       PRES   REMARKS
WEST MEMPHIS   FAIR      54  39  57 SE13      30.19F
6HR MIN TEMP:  34; 6HR MAX TEMP:  54;

$$

ARZ050-053-066-070-073-181900-
SOUTHWEST ARKANSAS

CITY           SKY/WX    TMP DP  RH WIND       PRES   REMARKS
ARKADELPHIA    CLOUDY    46  43  89 E5        30.20F
6HR MIN TEMP:  41; 6HR MAX TEMP:  46;

CAMDEN         CLOUDY    48  43  81 CALM      30.19F
TEXARKANA      CLOUDY    49  46  90 VRB3      30.16F
6HR MIN TEMP:  44; 6HR MAX TEMP:  49;

EL DORADO      CLOUDY    48  48 100 E6        30.18F
6HR MIN TEMP:  45; 6HR MAX TEMP:  48; 6HR PCP:  0.01;

DE QUEEN       CLOUDY    48  44  86 E8        30.15F
6HR MIN TEMP:  42; 6HR MAX TEMP:  48;

$$

ARZ056-057-069-181900-
SOUTHEAST ARKANSAS

CITY           SKY/WX    TMP DP  RH WIND       PRES   REMARKS
PINE BLUFF     CLOUDY    48  44  86 SE10      30.19F
6HR MIN TEMP:  40; 6HR MAX TEMP:  48;

STUTTGART      CLOUDY    50  42  74 SE10      30.20F
6HR MIN TEMP:  37; 6HR MAX TEMP:  50;

MONTICELLO     CLOUDY    49  45  86 E7        30.19F
6HR MIN TEMP:  41; 6HR MAX TEMP:  49;


$$






USA.gov is the U.S. government's official web portal to all federal, state and local government web resources and services.